period_start,C,m1,H,J0,J1,J2,J3,J4,J5,JA,JB,JC,JD,JJ,JK,JN,#
2016-07-11 00:04:16,0.00,0.24,0.00,16.66,22.66,26.40,14.80,47.37,1005.87,2057.99,3512.07,3099.99,3511.79,599.84,602.57,30.00,0000 0000 0000 0000 000000
2016-07-11 00:09:17,0.00,0.24,0.00,16.66,22.65,26.40,14.81,47.46,1005.87,2057.99,3512.03,3099.99,3511.73,599.96,602.66,30.05,0000 0000 0000 0000 000000
2016-07-11 00:14:18,0.00,0.24,0.00,16.72,22.66,26.41,14.75,47.56,1005.87,2057.99,3512.01,3099.99,3511.75,599.80,602.35,30.10,0000 0000 0000 0000 000000
2016-07-11 00:19:19,0.00,0.24,0.00,16.74,22.66,26.38,14.81,47.58,1005.86,2057.99,3512.01,3099.99,3511.43,599.82,602.28,30.16,0000 0000 0000 0000 000000
2016-07-11 00:24:21,0.00,0.24,0.00,16.71,22.66,26.47,14.89,47.71,1005.86,2058.00,3512.02,3099.99,3511.49,600.25,602.87,30.21,0000 0000 0000 0000 000000
2016-07-11 00:29:22,0.00,0.24,0.00,16.76,22.67,26.37,14.82,47.63,1005.85,2058.00,3512.01,3099.99,3511.26,600.47,602.96,30.26,0000 0000 0000 0000 000000
2016-07-11 00:34:23,0.00,0.24,0.00,16.76,22.67,26.42,14.81,47.63,1005.82,2058.00,3512.00,3099.98,3511.13,600.21,602.60,30.31,0000 0000 0000 0000 000000
2016-07-11 00:39:25,-0.00,0.24,0.00,16.77,22.67,26.39,14.85,47.56,1005.68,2058.01,3512.00,3099.98,3511.25,600.16,602.45,30.36,0000 0000 0000 0000 000000
2016-07-11 00:44:26,0.00,0.24,0.00,16.75,22.67,26.47,14.85,47.55,1005.71,2058.01,3512.00,3099.98,3511.37,600.13,602.50,30.41,0000 0000 0000 0000 000000
2016-07-11 00:49:27,-0.00,0.24,0.00,16.76,22.67,26.43,14.83,47.61,1005.76,2058.02,3512.00,3099.98,3511.38,600.25,602.64,30.46,0000 0000 0000 0000 000000
2016-07-11 00:54:28,0.00,0.24,0.00,16.80,22.67,26.46,14.85,47.69,1005.72,2058.01,3512.00,3099.96,3511.10,600.09,602.08,30.51,0000 0000 0000 0000 000000
2016-07-11 00:59:30,0.00,0.24,0.00,16.81,22.67,26.42,14.83,47.49,1005.51,2058.01,3512.00,3099.96,3511.05,600.01,602.14,30.56,0000 0000 0000 0000 000000
2016-07-11 01:04:31,0.00,0.24,0.00,16.78,22.67,26.42,14.83,47.70,1005.48,2058.01,3512.00,3099.91,3511.03,599.85,602.10,30.61,0000 0000 0000 0000 000000
2016-07-11 01:09:32,-0.00,0.24,0.00,16.79,22.68,26.44,14.91,47.67,1005.43,2058.00,3512.00,3099.91,3511.01,600.14,602.26,30.66,0000 0000 0000 0000 000000
2016-07-11 01:14:34,0.00,0.24,0.00,16.79,22.69,26.44,14.77,47.45,1005.39,2058.01,3511.99,3099.77,3511.01,599.82,601.89,30.71,0000 0000 0000 0000 000000
2016-07-11 01:19:35,0.00,0.24,0.00,16.79,22.69,26.43,14.76,47.56,1005.39,2058.00,3511.97,3099.41,3511.00,600.02,602.10,30.76,0000 0000 0000 0000 000000
2016-07-11 01:24:36,-0.01,0.24,0.00,16.80,22.69,26.43,14.78,47.56,1005.39,2058.00,3511.97,3099.55,3511.01,600.32,602.26,30.81,0000 0000 0000 0000 000000
2016-07-11 01:29:38,0.00,0.24,0.00,16.80,22.69,26.46,14.79,47.65,1005.39,2058.00,3511.99,3099.60,3511.00,600.03,601.99,30.86,0000 0000 0000 0000 000000
2016-07-11 01:34:39,-0.00,0.24,0.00,16.80,22.69,26.49,14.79,47.52,1005.39,2058.00,3511.99,3099.80,3511.00,600.22,602.36,30.91,0000 0000 0000 0000 000000
2016-07-11 01:39:41,0.00,0.24,0.00,16.84,22.70,26.49,14.87,47.70,1005.39,2058.00,3511.99,3099.63,3511.00,600.52,602.46,30.96,0000 0000 0000 0000 000000
2016-07-11 01:44:42,0.01,0.24,0.00,16.86,22.72,26.45,14.80,47.51,1005.39,2058.00,3511.99,3099.50,3511.00,599.84,601.79,31.01,0000 0000 0000 0000 000000
2016-07-11 01:49:44,0.00,0.24,0.00,16.89,22.72,26.45,14.86,47.73,1005.37,2058.00,3511.99,3099.41,3511.00,600.28,602.15,31.06,0000 0000 0000 0000 000000
2016-07-11 01:54:45,0.00,0.24,0.00,16.89,22.72,26.40,14.81,47.67,1005.34,2058.00,3511.98,3099.28,3511.00,599.70,601.60,31.11,0000 0000 0000 0000 000000
2016-07-11 01:59:46,0.00,0.24,0.00,16.88,22.73,26.52,14.84,47.72,1005.23,2057.99,3511.98,3099.11,3510.99,600.02,601.76,31.16,0000 0000 0000 0000 000000
2016-07-11 02:04:48,0.00,0.24,0.00,16.88,22.74,26.39,14.81,47.79,1005.08,2057.99,3511.97,3099.05,3510.97,600.11,601.83,31.21,0000 0000 0000 0000 000000
2016-07-11 02:09:49,0.00,0.24,0.00,16.88,22.74,26.50,14.83,47.83,1005.31,2057.98,3511.90,3099.01,3510.97,600.34,602.19,31.26,0000 0000 0000 0000 000000
2016-07-11 02:14:50,0.01,0.24,0.00,16.88,22.75,26.49,14.81,47.73,1005.33,2057.98,3511.78,3099.00,3510.94,600.10,601.94,31.31,0000 0000 0000 0000 000000
2016-07-11 02:19:52,-0.00,0.24,0.00,16.88,22.77,26.36,14.79,47.63,1005.30,2057.98,3511.78,3099.00,3510.86,600.13,601.95,31.36,0000 0000 0000 0000 000000
2016-07-11 02:24:53,0.00,0.24,0.00,16.94,22.77,26.42,14.77,47.72,1005.18,2057.98,3511.76,3099.00,3510.76,600.16,601.75,31.41,0000 0000 0000 0000 000000
2016-07-11 02:29:54,-0.00,0.24,0.00,16.96,22.78,26.35,14.71,47.58,1005.12,2057.97,3511.74,3099.00,3510.63,599.76,601.28,31.46,0000 0000 0000 0000 000000
2016-07-11 02:34:56,0.01,0.24,0.00,16.96,22.79,26.46,14.85,47.47,1005.01,2057.94,3511.50,3099.00,3510.29,600.14,601.62,31.51,0000 0000 0000 0000 000000
2016-07-11 02:39:57,0.00,0.24,0.00,17.02,22.79,26.45,14.73,47.41,1004.93,2057.87,3511.30,3099.00,3510.06,600.15,601.42,31.56,0000 0000 0000 0000 000000
2016-07-11 02:44:58,-0.00,0.24,0.00,17.01,22.81,26.38,14.82,47.52,1004.94,2057.88,3511.53,3099.00,3510.10,600.06,601.46,31.61,0000 0000 0000 0000 000000
2016-07-11 02:50:00,-0.03,0.24,0.00,17.06,22.82,26.42,14.70,47.39,1004.92,2057.72,3511.49,3099.00,3510.06,599.80,600.96,31.66,0000 0000 0000 0000 000000
2016-07-11 02:55:01,-0.02,0.24,0.00,17.09,22.83,26.39,14.72,47.38,1004.92,2057.32,3511.16,3098.99,3510.01,599.79,600.96,31.71,0000 0000 0000 0000 000000
2016-07-11 03:00:02,-0.00,0.24,0.00,17.11,22.84,26.43,14.77,47.51,1004.94,2057.14,3511.02,3098.93,3510.00,599.89,600.88,31.76,0000 0000 0000 0000 000000
2016-07-11 03:05:03,-0.00,0.24,0.00,17.07,22.86,26.36,14.75,47.55,1004.95,2057.07,3511.01,3098.89,3509.99,599.77,601.12,31.81,0000 0000 0000 0000 000000
2016-07-11 03:10:04,0.01,0.24,0.00,17.10,22.87,26.45,14.74,47.38,1004.98,2057.03,3511.00,3098.68,3509.99,599.86,601.08,31.86,0000 0000 0000 0000 000000
2016-07-11 03:15:06,0.01,0.24,0.00,17.11,22.89,26.45,14.79,47.70,1004.96,2057.01,3511.00,3098.17,3509.96,600.11,601.28,31.91,0000 0000 0000 0000 000000
2016-07-11 03:20:07,0.00,0.24,0.00,17.12,22.89,26.52,14.80,47.58,1004.98,2057.02,3510.99,3098.07,3509.96,600.37,601.48,31.96,0000 0000 0000 0000 000000
2016-07-11 03:25:08,0.01,0.24,0.00,17.12,22.92,26.54,14.72,47.35,1004.92,2057.04,3510.99,3098.05,3509.95,599.82,600.78,32.01,0000 0000 0000 0000 000000
2016-07-11 03:30:10,0.00,0.24,0.00,17.12,22.92,26.61,14.79,47.58,1004.92,2057.04,3510.97,3098.02,3509.76,600.18,601.34,32.06,0000 0000 0000 0000 000000
2016-07-11 03:35:11,0.01,0.24,0.00,17.16,22.94,26.40,14.83,47.51,1004.91,2057.00,3510.89,3098.00,3509.17,600.40,601.37,32.11,0000 0000 0000 0000 000000
2016-07-11 03:40:12,0.00,0.24,0.00,17.18,22.94,26.61,14.70,47.15,1004.90,2057.00,3510.42,3098.00,3509.02,599.69,600.61,32.16,0000 0000 0000 0000 000000
2016-07-11 03:45:14,0.00,0.24,0.00,17.21,22.96,26.60,14.78,47.60,1004.90,2057.00,3510.12,3097.98,3509.00,600.38,601.30,32.21,0000 0000 0000 0000 000000
2016-07-11 03:50:15,0.00,0.24,0.00,17.23,22.97,26.61,14.78,47.46,1004.90,2057.00,3510.03,3097.96,3509.00,600.20,601.07,32.26,0000 0000 0000 0000 000000
2016-07-11 03:55:16,0.01,0.24,0.00,17.21,22.99,26.63,14.83,47.58,1004.90,2056.98,3510.00,3097.82,3508.98,600.20,601.09,32.31,0000 0000 0000 0000 000000
2016-07-11 04:00:17,-0.00,0.24,0.00,17.21,22.99,26.74,14.82,47.42,1004.90,2056.98,3510.00,3097.76,3508.98,600.02,600.93,32.36,0000 0000 0000 0000 000000
2016-07-11 04:05:19,0.01,0.24,0.00,17.19,23.01,26.71,14.78,47.48,1004.90,2056.98,3510.00,3097.52,3508.97,600.20,601.25,32.42,0000 0000 0000 0000 000000
2016-07-11 04:10:20,0.00,0.24,0.00,17.20,23.02,26.68,14.83,47.47,1004.90,2056.98,3510.00,3097.57,3508.97,600.50,601.33,32.47,0000 0000 0000 0000 000000
2016-07-11 04:15:21,0.01,0.24,0.00,17.23,23.03,26.69,14.76,47.33,1004.90,2056.95,3510.00,3097.17,3508.83,600.06,600.97,32.52,0000 0000 0000 0000 000000
2016-07-11 04:20:22,-0.01,0.24,0.00,17.29,23.04,26.77,14.76,47.37,1004.90,2056.75,3510.00,3097.06,3508.39,599.91,600.61,32.57,0000 0000 0000 0000 000000
2016-07-11 04:25:23,-0.02,0.24,0.00,17.27,23.06,26.76,14.71,47.37,1004.90,2056.58,3509.98,3097.01,3508.17,599.44,600.21,32.62,0000 0000 0000 0000 000000
2016-07-11 04:30:24,0.01,0.24,0.00,17.23,23.07,26.80,14.78,47.55,1004.90,2056.54,3509.94,3097.00,3508.05,600.16,600.99,32.67,0000 0000 0000 0000 000000
2016-07-11 04:35:25,-0.01,0.24,0.00,17.29,23.08,26.76,14.76,47.40,1004.89,2056.34,3509.75,3097.00,3508.02,600.18,600.94,32.72,0000 0000 0000 0000 000000
2016-07-11 04:40:26,-0.01,0.24,0.00,17.29,23.09,26.74,14.75,47.49,1004.88,2056.25,3509.51,3097.00,3508.00,599.91,600.54,32.77,0000 0000 0000 0000 000000
2016-07-11 04:45:27,-0.00,0.24,0.00,17.29,23.11,26.78,14.80,47.55,1004.82,2056.12,3509.19,3097.00,3508.00,600.16,600.79,32.82,0000 0000 0000 0000 000000
2016-07-11 04:50:29,0.00,0.24,0.00,17.32,23.12,26.77,14.78,47.59,1004.79,2056.04,3509.04,3096.98,3507.99,600.22,600.84,32.87,0000 0000 0000 0000 000000
2016-07-11 04:55:30,-0.00,0.24,0.00,17.32,23.13,26.77,14.77,47.40,1004.70,2056.04,3509.01,3096.97,3507.99,600.15,600.74,32.92,0000 0000 0000 0000 000000
2016-07-11 05:00:31,0.00,0.24,0.00,17.34,23.14,26.75,14.74,47.50,1004.61,2056.04,3509.01,3096.95,3507.98,599.79,600.14,32.97,0000 0000 0000 0000 000000
2016-07-11 05:05:32,0.01,0.24,0.00,17.37,23.16,26.67,14.68,47.24,1004.59,2056.02,3509.00,3096.64,3507.90,599.91,600.30,33.02,0000 0000 0000 0000 000000
2016-07-11 05:10:33,0.01,0.24,0.00,17.40,23.17,26.80,14.67,47.41,1004.49,2056.01,3509.00,3096.27,3507.65,599.93,600.21,33.07,0000 0000 0000 0000 000000
2016-07-11 05:15:35,0.01,0.24,0.00,17.39,23.19,26.80,14.74,47.41,1004.47,2056.00,3509.00,3096.11,3507.20,599.89,600.22,33.12,0000 0000 0000 0000 000000
2016-07-11 05:20:36,0.00,0.24,0.00,17.39,23.20,26.87,14.75,47.47,1004.50,2056.00,3508.98,3096.02,3507.03,599.86,600.19,33.17,0000 0000 0000 0000 000000
2016-07-11 05:25:37,0.00,0.24,0.00,17.40,23.22,26.75,14.74,47.41,1004.50,2056.00,3508.96,3096.01,3507.01,600.11,600.38,33.22,0000 0000 0000 0000 000000
2016-07-11 05:30:38,0.00,0.24,0.00,17.42,23.23,26.86,14.77,47.47,1004.43,2056.00,3508.84,3096.00,3507.00,599.84,600.18,33.27,0000 0000 0000 0000 000000
2016-07-11 05:35:39,0.00,0.24,0.00,17.45,23.24,26.74,14.73,47.38,1004.41,2055.99,3508.44,3096.00,3507.00,599.88,600.03,33.33,0000 0000 0000 0000 000000
2016-07-11 05:40:41,0.00,0.24,0.00,17.34,23.26,26.77,14.83,47.38,1004.41,2055.98,3508.17,3095.98,3506.99,600.51,600.72,33.38,0000 0000 0000 0000 000000
2016-07-11 05:45:42,0.00,0.24,0.00,17.19,23.27,26.91,14.81,47.38,1004.41,2055.98,3508.00,3095.96,3506.96,599.96,600.53,33.43,0000 0000 0000 0000 000000
2016-07-11 05:50:43,0.00,0.24,0.00,17.04,23.29,27.04,14.73,47.58,1004.41,2055.97,3508.00,3095.91,3506.81,599.86,600.86,33.48,0000 0000 0000 0000 000000
2016-07-11 05:55:44,0.01,0.24,0.00,16.94,23.29,27.08,14.81,47.53,1004.41,2055.91,3508.00,3095.48,3506.35,600.06,601.24,33.53,0000 0000 0000 0000 000000
2016-07-11 06:00:45,0.00,0.25,0.00,17.44,23.31,26.88,14.82,47.54,1004.41,2055.89,3507.99,3095.24,3506.12,600.30,600.48,33.58,0000 0000 0000 0000 000000
2016-07-11 06:05:46,0.00,0.25,0.00,17.16,23.32,26.71,14.70,47.46,1004.40,2055.83,3507.81,3095.03,3506.03,599.96,600.76,33.63,0000 0000 0000 0000 000000
2016-07-11 06:10:47,0.00,0.25,0.00,16.95,23.33,26.84,14.86,47.71,1004.41,2055.84,3507.53,3095.02,3506.02,599.99,601.19,33.68,0000 0000 0000 0000 000000
2016-07-11 06:15:49,0.02,0.25,0.00,16.83,23.34,26.96,14.87,47.75,1004.41,2055.95,3507.06,3095.01,3506.01,599.96,601.36,33.73,0000 0000 0000 0000 000000
2016-07-11 06:20:50,-0.01,0.25,0.00,16.83,23.34,26.88,14.84,47.73,1004.41,2055.90,3507.01,3095.00,3506.00,600.39,601.66,33.78,0000 0000 0000 0000 000000
2016-07-11 06:25:51,0.01,0.25,0.00,16.80,23.34,26.87,14.80,47.66,1004.40,2055.92,3507.01,3095.00,3506.00,600.10,601.61,33.83,0000 0000 0000 0000 000000
2016-07-11 06:30:52,0.00,0.25,0.00,16.75,23.34,26.80,14.87,47.63,1004.34,2055.95,3507.01,3095.00,3506.00,600.23,601.74,33.88,0000 0000 0000 0000 000000
2016-07-11 06:35:54,0.00,0.25,0.00,16.74,23.35,26.92,14.86,47.58,1004.16,2055.93,3507.02,3095.00,3505.99,599.94,601.39,33.93,0000 0000 0000 0000 000000
2016-07-11 06:40:55,0.00,0.25,0.00,16.66,23.35,26.75,14.82,47.67,1004.00,2055.96,3507.01,3095.00,3505.99,600.31,601.81,33.98,0000 0000 0000 0000 000000
2016-07-11 06:45:56,0.00,0.25,0.00,16.67,23.35,26.68,14.82,47.72,1004.00,2055.97,3507.00,3095.00,3505.99,599.96,601.35,34.03,0000 0000 0000 0000 000000
2016-07-11 06:50:57,0.00,0.25,0.00,16.64,23.35,26.70,14.92,47.72,1003.97,2055.97,3507.00,3095.00,3505.99,600.06,601.52,34.08,0000 0000 0000 0000 000000
2016-07-11 06:55:58,-0.00,0.25,0.00,16.67,23.35,26.73,14.81,47.64,1003.94,2055.95,3507.01,3095.00,3505.99,599.74,601.23,34.13,0000 0000 0000 0000 000000
2016-07-11 07:01:00,0.00,0.25,0.00,16.69,23.35,26.66,14.74,47.52,1003.94,2055.95,3507.01,3095.00,3505.99,599.35,600.81,34.18,0000 0000 0000 0000 000000
2016-07-11 07:06:01,0.00,0.25,0.00,16.68,23.35,26.72,14.82,47.76,1003.94,2055.98,3507.00,3095.00,3505.98,600.14,601.66,34.23,0000 0000 0000 0000 000000
2016-07-11 07:11:02,-0.00,0.25,0.00,16.80,23.34,26.80,14.78,47.75,1003.93,2055.96,3507.00,3095.00,3505.98,599.81,600.94,34.28,0000 0000 0000 0000 000000
2016-07-11 07:16:04,-0.00,0.25,0.00,16.91,23.34,26.81,14.80,47.67,1003.93,2055.90,3507.01,3095.00,3505.98,600.12,601.12,34.34,0000 0000 0000 0000 000000
2016-07-11 07:21:05,-0.01,0.25,0.00,16.94,23.34,26.90,14.74,47.60,1003.92,2055.70,3507.11,3095.00,3505.98,599.70,600.56,34.39,0000 0000 0000 0000 000000
2016-07-11 07:26:06,0.01,0.25,0.00,17.00,23.34,26.90,14.81,47.76,1003.93,2055.77,3507.03,3095.00,3505.99,600.12,600.88,34.44,0000 0000 0000 0000 000000
2016-07-11 07:31:07,0.01,0.25,0.00,17.12,23.34,26.91,14.83,47.80,1003.93,2055.90,3507.03,3095.00,3505.99,600.10,600.63,34.49,0000 0000 0000 0000 000000
2016-07-11 07:36:08,0.00,0.25,0.00,17.16,23.34,26.95,14.75,47.69,1003.93,2055.90,3507.00,3095.00,3505.98,600.06,600.44,34.54,0000 0000 0000 0000 000000
2016-07-11 07:41:10,0.00,0.25,0.00,17.11,23.34,26.97,14.80,47.63,1003.94,2055.95,3506.99,3095.00,3505.98,599.99,600.37,34.59,0000 0000 0000 0000 000000
2016-07-11 07:46:11,0.00,0.25,0.00,17.17,23.34,27.00,14.81,47.67,1003.94,2055.97,3507.00,3094.99,3505.99,600.17,600.58,34.64,0000 0000 0000 0000 000000
2016-07-11 07:51:12,0.00,0.25,0.00,17.28,23.34,27.04,14.75,47.55,1003.98,2055.97,3507.00,3094.99,3505.99,599.80,600.04,34.69,0000 0000 0000 0000 000000
2016-07-11 07:56:13,0.00,0.25,0.00,17.33,23.35,27.05,14.78,47.53,1003.95,2055.96,3507.00,3094.99,3505.98,599.97,599.99,34.74,0000 0000 0000 0000 000000
2016-07-11 08:01:15,0.00,0.25,0.00,17.38,23.36,26.99,14.75,47.54,1003.97,2055.97,3507.00,3094.99,3505.98,600.32,600.25,34.79,0000 0000 0000 0000 000000
2016-07-11 08:06:16,-0.00,0.25,0.00,17.42,23.37,27.00,14.76,47.52,1003.94,2055.97,3506.99,3094.99,3505.97,599.78,599.69,34.84,0000 0000 0000 0000 000000
2016-07-11 08:11:17,0.00,0.25,0.00,17.43,23.37,27.02,14.75,47.53,1003.93,2055.98,3506.98,3094.98,3505.95,599.95,599.85,34.89,0000 0000 0000 0000 000000
2016-07-11 08:16:19,-0.01,0.25,0.00,17.43,23.37,27.04,14.77,47.55,1003.93,2055.94,3506.98,3094.98,3505.90,600.03,599.92,34.94,0000 0000 0000 0000 000000
2016-07-11 08:21:20,0.01,0.25,0.00,17.47,23.39,27.11,14.73,47.64,1003.93,2055.91,3506.80,3094.94,3505.67,600.05,599.75,34.99,0000 0000 0000 0000 000000
2016-07-11 08:26:22,0.01,0.25,0.00,17.49,23.39,27.10,14.78,47.58,1003.93,2055.89,3506.54,3094.87,3505.41,600.27,600.05,35.04,0000 0000 0000 0000 000000
2016-07-11 08:31:23,-0.01,0.25,0.00,17.50,23.41,27.04,14.75,47.45,1003.93,2055.83,3506.48,3094.77,3505.15,599.91,599.64,35.09,0000 0000 0000 0000 000000
2016-07-11 08:36:24,0.00,0.25,0.00,17.55,23.42,27.01,14.68,47.68,1003.94,2055.58,3506.17,3094.32,3505.05,599.96,599.61,35.14,0000 0000 0000 0000 000000
2016-07-11 08:41:26,-0.02,0.25,0.00,17.59,23.43,27.16,14.73,47.58,1003.93,2055.38,3506.01,3094.08,3505.01,599.93,599.46,35.19,0000 0000 0000 0000 000000
2016-07-11 08:46:27,-0.01,0.25,0.00,17.58,23.45,27.06,14.74,47.62,1003.93,2055.21,3506.00,3094.02,3505.00,599.96,599.57,35.25,0000 0000 0000 0000 000000
2016-07-11 08:51:28,0.00,0.25,0.00,17.60,23.46,27.11,14.79,47.47,1003.94,2055.15,3505.98,3094.00,3504.99,600.03,599.57,35.30,0000 0000 0000 0000 000000
2016-07-11 08:56:29,-0.01,0.25,0.00,17.65,23.47,27.07,14.73,47.45,1003.93,2055.09,3505.98,3094.00,3504.99,599.92,599.31,35.35,0000 0000 0000 0000 000000
2016-07-11 09:01:30,-0.00,0.25,0.00,17.70,23.49,26.99,14.73,47.34,1003.95,2055.05,3505.95,3094.00,3504.96,599.99,599.37,35.40,0000 0000 0000 0000 000000
2016-07-11 09:06:32,-0.00,0.25,0.00,17.71,23.50,27.11,14.73,47.45,1003.93,2055.04,3505.86,3093.99,3504.91,600.01,599.43,35.45,0000 0000 0000 0000 000000
2016-07-11 09:11:33,0.00,0.25,0.00,17.67,23.52,27.11,14.69,47.52,1003.94,2055.03,3505.73,3093.99,3504.75,599.84,599.30,35.50,0000 0000 0000 0000 000000
2016-07-11 09:16:35,0.01,0.25,0.00,17.67,23.53,27.17,14.73,47.50,1003.94,2055.01,3505.35,3093.94,3504.20,599.72,599.13,35.55,0000 0000 0000 0000 000000
2016-07-11 09:21:36,0.01,0.25,0.00,17.75,23.55,27.16,14.77,47.38,1003.93,2055.00,3505.08,3093.76,3504.02,600.18,599.40,35.60,0000 0000 0000 0000 000000
2016-07-11 09:26:37,0.01,0.25,0.00,17.76,23.56,27.12,14.68,47.48,1003.95,2055.00,3505.03,3093.51,3504.01,599.94,599.39,35.65,0000 0000 0000 0000 000000
2016-07-11 09:31:39,-0.00,0.25,0.00,17.74,23.57,27.22,14.70,47.48,1003.94,2055.00,3505.06,3093.59,3504.02,600.01,599.25,35.70,0000 0000 0000 0000 000000
2016-07-11 09:36:40,0.01,0.25,0.00,17.68,23.59,27.29,14.72,47.52,1003.94,2055.00,3505.01,3093.20,3504.00,599.85,599.24,35.75,0000 0000 0000 0000 000000
2016-07-11 09:41:41,0.00,0.25,0.00,17.71,23.60,27.30,14.72,47.41,1003.93,2055.00,3505.00,3093.06,3504.00,599.89,599.29,35.80,0000 0000 0000 0000 000000
2016-07-11 09:46:42,0.00,0.25,0.00,17.72,23.62,27.32,14.71,47.48,1003.92,2054.99,3505.00,3093.00,3503.98,600.14,599.54,35.85,0000 0000 0000 0000 000000
2016-07-11 09:51:44,0.00,0.25,0.00,17.76,23.63,27.36,14.76,47.65,1003.93,2054.99,3504.99,3093.01,3503.99,599.95,599.06,35.90,0000 0000 0000 0000 000000
2016-07-11 09:56:45,0.00,0.25,0.00,17.79,23.65,27.34,14.72,47.43,1003.93,2054.98,3504.98,3093.00,3503.95,600.12,599.28,35.95,0000 0000 0000 0000 000000
2016-07-11 10:01:46,-0.00,0.25,0.00,17.75,23.67,27.39,14.73,47.43,1003.93,2054.96,3504.96,3093.00,3503.59,599.75,599.02,36.00,0000 0000 0000 0000 000000
2016-07-11 10:06:47,0.00,0.25,0.00,17.77,23.68,27.39,14.75,47.42,1003.94,2054.88,3504.83,3092.98,3503.16,600.11,599.24,36.05,0000 0000 0000 0000 000000
2016-07-11 10:11:48,-0.03,0.25,0.00,17.83,23.70,27.27,14.70,47.38,1003.96,2054.60,3504.62,3092.94,3503.02,600.10,599.18,36.11,0000 0000 0000 0000 000000
2016-07-11 10:16:49,0.01,0.25,0.00,17.84,23.72,27.35,14.71,47.38,1004.05,2054.42,3504.06,3092.65,3503.00,599.74,598.88,36.16,0000 0000 0000 0000 000000
2016-07-11 10:21:51,0.01,0.25,0.00,17.84,23.73,27.40,14.74,47.52,1004.27,2054.43,3504.00,3092.13,3503.00,599.97,599.29,36.21,0000 0000 0000 0000 000000
2016-07-11 10:26:52,0.04,0.25,0.00,17.83,23.75,27.37,14.74,47.59,1004.36,2054.84,3503.78,3092.01,3502.98,599.57,598.96,36.26,0000 0000 0000 0000 000000
2016-07-11 10:31:53,0.00,0.25,0.00,17.84,23.75,27.37,14.73,47.43,1004.41,2054.87,3503.14,3092.00,3502.94,600.03,599.34,36.31,0000 0000 0000 0000 000000
2016-07-11 10:36:55,0.01,0.25,0.00,17.89,23.77,27.26,14.78,47.48,1004.41,2054.82,3503.01,3092.00,3502.65,600.17,599.51,36.36,0000 0000 0000 0000 000000
2016-07-11 10:41:56,-0.04,0.25,0.00,17.88,23.77,27.32,14.71,47.48,1004.42,2054.53,3503.03,3092.00,3502.20,600.05,599.24,36.41,0000 0000 0000 0000 000000
2016-07-11 10:46:58,0.01,0.25,0.00,17.93,23.79,27.28,14.75,47.42,1004.44,2054.34,3503.00,3091.98,3502.04,600.27,599.35,36.46,0000 0000 0000 0000 000000
2016-07-11 10:51:59,-0.02,0.25,0.00,17.98,23.80,27.27,14.73,47.47,1004.42,2054.22,3502.98,3091.94,3502.01,599.88,599.00,36.51,0000 0000 0000 0000 000000
2016-07-11 10:57:01,0.01,0.25,0.00,17.95,23.80,27.38,14.60,47.42,1004.43,2054.20,3502.96,3091.92,3502.00,599.65,598.74,36.56,0000 0000 0000 0000 000000
2016-07-11 11:02:02,-0.01,0.25,0.00,17.96,23.82,27.48,14.63,47.36,1004.42,2054.22,3502.97,3091.92,3502.00,599.92,598.95,36.61,0000 0000 0000 0000 000000
2016-07-11 11:07:03,0.00,0.25,0.00,17.92,23.82,27.52,14.69,47.14,1004.42,2054.11,3502.91,3091.79,3502.00,600.11,599.27,36.66,0000 0000 0000 0000 000000
2016-07-11 11:12:05,0.01,0.25,0.00,17.97,23.82,27.53,14.80,47.36,1004.43,2054.13,3502.77,3091.77,3502.00,599.90,598.99,36.71,0000 0000 0000 0000 000000
2016-07-11 11:17:06,0.01,0.25,0.00,18.00,23.84,27.44,14.72,47.32,1004.43,2054.22,3502.54,3091.59,3502.00,600.02,599.04,36.76,0000 0000 0000 0000 000000
2016-07-11 11:22:07,-0.01,0.25,0.00,17.99,23.85,27.54,14.71,47.33,1004.42,2054.10,3502.37,3091.31,3501.97,600.04,599.01,36.81,0000 0000 0000 0000 000000
2016-07-11 11:27:09,0.00,0.25,0.00,17.99,23.85,27.49,14.77,47.34,1004.42,2054.05,3502.32,3091.22,3501.99,600.18,599.21,36.86,0000 0000 0000 0000 000000
2016-07-11 11:32:10,0.00,0.25,0.00,18.05,23.86,27.45,14.76,47.38,1004.42,2054.05,3502.17,3091.10,3501.97,600.20,599.11,36.91,0000 0000 0000 0000 000000
2016-07-11 11:37:11,0.00,0.25,0.00,18.05,23.87,27.52,14.67,47.23,1004.43,2054.07,3502.18,3091.08,3501.98,600.12,598.98,36.96,0000 0000 0000 0000 000000
2016-07-11 11:42:12,-0.00,0.25,0.00,18.09,23.87,27.48,14.62,47.27,1004.43,2054.05,3502.09,3091.03,3501.95,599.88,598.75,37.01,0000 0000 0000 0000 000000
2016-07-11 11:47:13,0.00,0.25,0.00,18.05,23.89,27.39,14.65,47.33,1004.44,2054.01,3502.01,3091.02,3501.68,599.93,598.84,37.07,0000 0000 0000 0000 000000
2016-07-11 11:52:15,0.00,0.25,0.00,18.06,23.90,27.50,14.70,47.25,1004.43,2054.00,3502.01,3091.00,3501.23,599.69,598.54,37.12,0000 0000 0000 0000 000000
2016-07-11 11:57:16,0.00,0.25,0.00,18.06,23.91,27.38,14.75,47.39,1004.46,2054.00,3502.01,3091.00,3501.14,599.96,598.84,37.17,0000 0000 0000 0000 000000
2016-07-11 12:02:17,0.00,0.25,0.00,18.04,23.92,27.42,14.65,47.33,1004.50,2054.00,3502.00,3091.00,3501.06,599.78,598.67,37.22,0000 0000 0000 0000 000000
2016-07-11 12:07:19,0.00,0.25,0.00,18.04,23.92,27.51,14.71,47.33,1004.50,2054.00,3502.00,3091.00,3501.05,600.33,599.29,37.27,0000 0000 0000 0000 000000
2016-07-11 12:12:20,0.00,0.25,0.00,18.05,23.93,27.47,14.72,47.42,1004.53,2054.00,3501.99,3090.99,3501.01,600.22,599.23,37.32,0000 0000 0000 0000 000000
2016-07-11 12:17:21,0.00,0.25,0.00,18.01,23.95,27.54,14.67,47.37,1004.46,2054.00,3501.99,3090.99,3501.01,599.65,598.70,37.37,0000 0000 0000 0000 000000
2016-07-11 12:22:23,0.00,0.25,0.00,18.04,23.95,27.62,14.73,47.38,1004.48,2054.00,3501.98,3090.98,3501.00,600.00,599.03,37.42,0000 0000 0000 0000 000000
2016-07-11 12:27:24,0.00,0.25,0.00,18.01,23.95,27.63,14.72,47.38,1004.45,2054.00,3501.97,3090.97,3501.00,599.77,598.74,37.47,0000 0000 0000 0000 000000
2016-07-11 12:32:25,0.00,0.25,0.00,18.03,23.97,27.64,14.76,47.45,1004.44,2054.00,3501.83,3090.94,3501.00,600.20,599.20,37.52,0000 0000 0000 0000 000000
2016-07-11 12:37:26,0.01,0.25,0.00,18.02,23.97,27.64,14.67,47.44,1004.47,2053.99,3501.44,3090.84,3500.98,599.85,598.85,37.57,0000 0000 0000 0000 000000
2016-07-11 12:42:28,0.01,0.25,0.00,18.00,23.97,27.60,14.78,47.54,1004.50,2053.99,3501.22,3090.70,3500.99,599.89,598.90,37.62,0000 0000 0000 0000 000000
2016-07-11 12:47:29,0.01,0.25,0.00,17.98,23.97,27.65,14.76,47.58,1004.45,2053.99,3501.03,3090.33,3500.99,599.85,598.95,37.67,0000 0000 0000 0000 000000
2016-07-11 12:52:30,0.00,0.25,0.00,18.03,23.98,27.72,14.73,47.42,1004.43,2053.99,3501.01,3090.09,3500.93,600.16,599.10,37.72,0000 0000 0000 0000 000000
2016-07-11 12:57:32,-0.00,0.25,0.00,17.99,23.99,27.65,14.70,47.45,1004.42,2053.98,3501.07,3090.14,3500.91,599.88,598.95,37.77,0000 0000 0000 0000 000000